Regional Weather Roundup
Issued by NWS Wakefield, VA

Home | Current Version | Previous Version | Text Only | Print | Product List | Glossary Off
Versions: 1 2 3 4 5 6 7 8 9 10 11 12 13 14 15 16 17 18 19 20 21 22 23 24 25 26 27 28 29 30 31 32 33 34 35 36 37 38 39 40 41 42 43 44 45 46 47 48 49 50

951
ASUS41 KAKQ 291215
RWRAKQ

REGIONAL WEATHER ROUNDUP
NATIONAL WEATHER SERVICE WAKEFIELD VA
800 AM EDT THU SEP 29 2016

Note: "fair" indicates few or no clouds below 12,000 feet with no
significant weather and/or obstructions to visibility. * = Denotes
station may not report precipitation (e.g., rain,snow,etc.),
thunder or fog.

VAZ042-051-052>054-056-291300-
NORTHERN VIRGINIA

CITY           SKY/WX    TMP DP  RH WIND       PRES   REMARKS
WASH NATIONAL  LGT RAIN  69  67  93 E20       30.07F FOG
DULLES         CLOUDY    66  64  93 E17       30.07R FOG
FORT BELVOIR   LGT RAIN  68  64  88 VRB6      30.07S
QUANTICO       LGT RAIN  70  66  87 E12       30.07R
FREDERICKSBRG* CLOUDY    69  69 100 CALM      30.06R
STAFFORD*      DRIZZLE   67  67 100 E7G18     30.10S
WARRENTON      CLOUDY    68  63  85 E7        30.05S
CULPEPER*      CLOUDY    68  67  98 E5        30.06S
MANASSAS*      CLOUDY    68  68 100 E9        30.08R
LEESBURG*      CLOUDY    66  66 100 SE6G20    30.09R
WINCHESTER     DRIZZLE   61  61 100 NE5       30.06R
FRONT ROYAL*   CLOUDY    61  61 100 W5        30.06R
LURAY*         DRIZZLE  N/A N/A N/A NE6       30.05R
$$

VAZ048-049-060>072-079>083-291300-
CENTRAL AND SOUTH CENTRAL VIRGINIA

CITY           SKY/WX    TMP DP  RH WIND       PRES   REMARKS
RICHMOND       LGT RAIN  68  67  96 NE5       30.04R
CHESTERFIELD*  CLOUDY    68  54  60 CALM      30.05R
PETERSBURG*    LGT RAIN N/A N/A N/A N3        30.03S
HANOVER        NOT AVBL
TAPPAHANNOCK*  CLOUDY    70  70 100 E8        30.05F
QUINTON*       CLOUDY    69  69  99 E9        30.03R
CHARLOTTSVILLE CLOUDY    69  66  90 E3        30.05R FOG
GORDONSVILLE*  CLOUDY    66  66 100 E5        30.05R
ORANGE*          N/A     68  68 100 CALM      30.07R
LOUISA*        CLOUDY    70  68  94 E3        30.03R
BUMPASS*       PTSUNNY   66  66 100 E7        30.04F
FARMVILLE*     CLOUDY    67  67  97 CALM      30.03R FOG
CREWE*         CLOUDY    65  65 100 N3        30.03R
FORT PICKETT*  PTSUNNY   65  61  87 N8        30.02R
CHASE CITY*    CLOUDY    65  63  94 N3        30.00F
CLARKSVILLE*   PTSUNNY   64  64 100 N3        29.99F
SOUTH HILL*    CLOUDY    66  66 100 CALM      30.04S
LAWRENCEVILLE* CLOUDY    70  69  97 SE9G17    29.99F
EMPORIA*       LGT SNOW  70  70 100 SE5       30.05R
$$

VAZ088>098-291300-
SOUTHEAST VIRGINIA

CITY           SKY/WX    TMP DP  RH WIND       PRES   REMARKS
NORFOLK        RAIN      72  69  90 E6        30.05R FOG
VIRGINIA BEACH PTSUNNY   74  73  97 E6        30.03R
NORFOLK NAVAL  LGT RAIN  72  69  90 E6        30.05S
WEST POINT*    PTSUNNY   69  69  99 E8        30.06S
SALUDA*        CLOUDY    71  71 100 E8G18     30.06R
NEWPORT NEWS   LGT RAIN  71  69  93 E7        30.05R
LANGLEY AFB    MOSUNNY   74  73  97 E6        30.04S
FORT EUSTIS    CLOUDY    70  68  94 E6        30.02R
WILLIAMSBURG*  SUNNY     70  70 100 CALM      30.05R
HR EXEC AP*    FAIR      70  66  88 CALM      30.06R
FRANKLIN*      SUNNY     70  69  96 E5        30.03S
US460-WAKEFLD  MOSUNNY   71  70  96 E6        30.02S FOG
$$

VAZ020-022-025-037-045-291300-
WEST CENTRAL AND SOUTHWEST VIRGINIA

CITY           SKY/WX    TMP DP  RH WIND       PRES   REMARKS
STAUNTON*      CLOUDY    62  62  99 CALM      30.07R
WAYNESBORO*    CLOUDY    62  61  97 CALM      30.06R
HOT SPRINGS VA HVY RAIN  57  57 100 E3        30.09R VSB<1/4
LYNCHBURG      CLOUDY    65  64  97 CALM      30.05R
DANVILLE       MOCLDY    64  64 100 CALM      30.01R
SOUTH BOSTON*  FAIR      63  62  95 CALM      30.01S
MARTINSVILLE   CLOUDY    64  62  91 E3        30.03R
ROANOKE        CLOUDY    65  64  97 SE8       30.04R
BLACKSBURG     CLOUDY    63  63 100 E7        30.06S FOG
DUBLIN*        CLOUDY    59  58  96 NE3       30.04R
MARION*        CLOUDY    56  53  88 E3        30.05R
HILLSVILLE*    CLOUDY    59  59 100 E3        30.03R FOG
RICHLANDS*     LGT RAIN  56  55  97 E7        30.00S
WISE*          CLOUDY    54  50  87 CALM      30.02R
ABINGDON*      MOCLDY    56  52  86 E7        29.99S
$$

MDZ021>025-VAZ099-100-291300-
SOUTHERN MARYLAND AND THE DELMARVA PENINSULA

CITY           SKY/WX    TMP DP  RH WIND       PRES   REMARKS
PATUXENT RIVER LGT RAIN  70  67  90 E17G28    30.08R
BAY BRIDGE APT CLOUDY    68  64  88 MISG      30.11R FOG
LEONARDTOWN    CLOUDY    68  64  88 E7        30.11R
DOVER          CLOUDY    66  66 100 E25G38    30.14R
GEORGETOWN     LGT RAIN  68  68 100 E13G29    30.14R
EASTON         CLOUDY    68  66  94 E12G18    30.16R FOG
CAMBRIDGE      CLOUDY    68  64  88 E12G20    30.11R
SALISBURY      CLOUDY    69  68  96 E13G21    30.11R
OCEAN CITY     LGT RAIN N/A N/A N/A E20G36    30.11R
WALLOPS ISLAND LGT RAIN  72  70  93 NE22G30   30.10R
ACCOMACK*      CLOUDY    71  68  90 E9        30.08R
$$

NCZ012>017-030>032-291300-
NORTH CENTRAL AND EASTERN NORTH CAROLINA

CITY           SKY/WX    TMP DP  RH WIND       PRES   REMARKS
ROANOKE RAPIDS LGT RAIN  68  68 100 SW7       30.04R
RALEIGH        MOCLDY    65  64  97 CALM      29.99R
ELIZABETH CITY PTSUNNY   75  74  96 E5        30.03R
AHOSKIE*       FOG       70  70  99 E5        30.03R VSB 1/4
EDENTON*       MOSUNNY   75  75 100 E3        30.02R
CURRITUCK*     NOT AVBL
KILL DEVIL HLS MOSUNNY   75  75 100 E3        30.02R
MANTEO         PTSUNNY   75  75 100 E5        30.03R
CAPE HATTERAS  PTSUNNY   75  72  90 E5        30.01R
TARBORO*       RAIN      69  69  98 W9        30.05R
GOLDSBORO      TSTM      67  67 100 NW12G23   30.00R FOG
WASHINGTON     SUNNY     70  69  98 CALM      30.01S
GREENVILLE     PTSUNNY   70  70 100 NW3       30.03R FOG
NEW BERN       MOSUNNY   73  71  93 N3        30.01R
WILMINGTON     CLOUDY    76  72  87 S3        29.97R
$$

VAZ048-291300-
ELSEWHERE

CITY           SKY/WX    TMP DP  RH WIND       PRES   REMARKS
HARRISBURG PA  LGT RAIN  60  59  96 E20G26    30.18R FOG
BALTIMORE      TSTM      65  64  97 E3        30.14R FOG
ANNAPOLIS      CLOUDY    70  66  87 E15G23    30.12R
ANDREWS AFB    RAIN      67  65  94 E10G21    30.08S FOG
PHILADELPHIA   LGT RAIN  63  61  93 E17G30    30.21R
HENDERSON NC   MOCLDY    62  61  96 CALM      29.99S
GREENSBORO     CLOUDY    65  65 100 E6        29.99R
ROCKY MOUNT    RAIN      67  67 100 E9        30.00F
$$

VAZ100-291300-
MARINE

STATION/POSITION TIME  TEMP    WIND        PRES    WAVE   SWELL
                       AIR SEA DIR/SP/G            HT/PER HT/PER
                 (UTC) (F)     (DEG/KT/KT) (MB)    (FT/S) (FT/S)
BRANDYWINE LGT   1148   68      80/ 31/ 35   N/A
CAPE MAY NJ      1148   67 71   70/ 12/ 20 1020.9R
LEWES DE         1148   69 71   90/ 25/ 31 1020.5R
OCEAN-CITY-INLET 1148   68 72   90/ 22/ 32 1019.8R
WACHAPREAGUE VA  1148   72 74   50/ 18/ 21 1018.3R
THOMAS POINT MD  1200   69 73   90/ 28/ 31 1020.1R
GOOSES REEF MD   1150   71     110/ 19/ 23 1019.1R
COVE POINT MD    1148   69     120/ 19/ 24 1019.3R
SOLOMONS ISLAND  1148   70 74   80/ 16/ 21   N/A
BISHOPS HEAD MD  1148   71 70   80/ 17/ 22 1018.9R
PINEY POINT MD   1148          110/ 17/ 20   N/A
POTOMAC MD       1150   72     100/ 19/ 23 1017.4R
CAMBRIDGE MD     1148   70 73   80/ 15/ 21 1018.7R
LEWISETTA VA     1148   72 72  110/ 21/ 24 1017.8R
RAPPAHANNOCK LGT 1148           60/ 14/ 16 1018.5R
STINGRAY PT      1150   74     350/ 10/ 14 1018.3R
YORK RVR RNG VA  1148   72      60/  5/  9 1017.3R
YORKTOWN VA      1148   73 76   60/  9/ 10 1017.1R
JAMESTOWN VA     1150   70      70/  4/  8   N/A
DOMINION TERM VA 1148   74     110/  6/  7 1017.2R
KIPTOPEKE VA     1148      75   70/  8/ 11   N/A
CHES BAY BRIDGE  1148   75 76   60/ 12/ 12 1017.1R
CAPE HENRY VA    1148   75      90/ 10/ 11   N/A
WILLOUBY STN VA  1148   74     130/  9/  9   N/A
CAPE HENRY BUOY  1142      76                N/A     5/ 8   2/11
1ST LANDING BUOY 1150   76     110/ 10/ 12 1017.0R
CAPE CHARLES BUO 1156      76                N/A     4/ 8   2/11
OFFSHORE WE BUOY 1151      75                N/A     6/ 8   2/11
64NM E OF VA BCH 1150   75 74   60/  4/  4 1017.0R   5/ 7   5/ 7
DUCK PIER NC     1148   77 76   90/  8/  9 1016.4R
44056 DUCK FRF   1141      76                N/A     4/ 8   2/11
OREGON INLET NC  1148   77 77   50/  5/  7 1016.5R
HATTERAS NC      1148   77 78   80/  3/  6 1016.0R
DIAMOND SHLS NC  1150   79 81   40/  4/  6 1015.9R   3/11   3/11
CAPE LOOKOUT NC  1200   79     130/  3/  3 1015.4R
$$




USA.gov is the U.S. government's official web portal to all federal, state and local government web resources and services.